Content
SEND FEEDBACK

Daily
Averages
Monthly
Summary
Mauritania

PORT-ETIENNE, MAURITANIA


Home > Africa > Mauritania
Elevation: 10 feet     Latitude: 20 54N     Longitude: 017 06W

WEATHER
 
SELECT A DAY
Number of Records: 118,056;   Date Range: 7/1/96 - 8/27/14
 
SHARE

PRINT THIS DATA

[ ← Previous Day ]
WEATHER ALMANAC - FEBRUARY 8, 2013
[ Next Day → ]
[ °C ]   °F
Weather ElementAverageHighLow
Temperature65.7 °F77 °F (2:00 pm)59 °F (8:00 am)
Dewpoint53.1 °F57 °F (3:00 pm)44.6 °F (2:00 pm)
Humidity63.2 %77 % (8:00 am)32 % (2:00 pm)
Barometer30.01 in30.07 in (12:00 pm)29.95 in (4:00 pm)
Wind Speed16.7 mph20.7 mph (10:00 am)
Weather ElementAverage
Visibility5 mi
Wind DirectionWSW (250 °)

Weather ElementTotal
Precipitation---
Cooling Degree Days3 (Base 65)
Growing Degree Days18 (Base 50)
Averaged from 31 records on February 8, 2013
WEATHER CONDITIONS BREAKOUT
WIND DIRECTION BREAKOUT
WEATHER BY HOUR - FEBRUARY 8, 2013
[ °C ]   °F
Local TimeTemperatureDewpointHumidityBarometerVisibilityWind DirectionWind SpeedGust SpeedPrecipitationEventsConditions
12:00 AM62.6 °F53.6 °F72 %30.04 in5.0 miNorth (10°)13.8 mph
1:00 AM62.6 °F53.6 °F72 %30.01 in5.0 miNorth (10°)15.0 mph
2:00 AM62.6 °F53.6 °F72 %30.01 in5.0 miNNE (30°)13.8 mph
3:00 AM62.0 °F54.0 °F69 %30.02 in5.0 miNNW (340°)12.7 mphMostly Cloudy
3:00 AM62.6 °F51.8 °F68 %30.01 in5.0 miNorth (360°)12.7 mph
4:00 AM62.6 °F51.8 °F68 %29.98 in5.0 miNorth (360°)15.0 mph
5:00 AM60.8 °F51.8 °F72 %29.98 in5.0 miNorth (350°)13.8 mph
6:00 AM60.8 °F51.8 °F72 %29.98 in5.0 miNorth (360°)17.3 mph
6:00 AM60.0 °F54.0 °F76 %30.01 in5.0 miNNW (340°)15.0 mph
7:00 AM60.8 °F51.8 °F72 %29.98 in5.0 miNorth (10°)18.4 mph
8:00 AM59.0 °F51.8 °F77 %30.01 in5.0 miNorth (10°)15.0 mph
9:00 AM60.0 °F54.0 °F74 %30.05 in5.0 miNorth16.1 mph
9:00 AM60.8 °F51.8 °F72 %30.04 in5.0 miNorth (10°)16.1 mph
10:00 AM62.6 °F53.6 °F72 %30.04 in5.0 miNorth (360°)20.7 mph
11:00 AM66.2 °F51.8 °F60 %30.06 in5.0 miNorth (360°)18.4 mph
12:00 PM69.8 °F50.0 °F49 %30.04 in5.0 miNorth (360°)20.7 mph
12:00 PM70.0 °F51.0 °F41 %30.07 in5.0 miNorth20.7 mphScattered Clouds
1:00 PM73.4 °F50.0 °F44 %30.01 in5.0 miNorth (360°)20.7 mph
2:00 PM77.0 °F44.6 °F32 %29.98 in5.0 miNorth (10°)20.7 mph
3:00 PM77.0 °F57.0 °F39 %29.99 in5.0 miNNW (340°)15.0 mphScattered Clouds
3:00 PM75.2 °F55.4 °F50 %29.98 in5.0 miNNW (340°)13.8 mphClear
4:00 PM75.2 °F55.4 °F50 %29.95 in5.0 miNNW (340°)13.8 mph
5:00 PM71.6 °F55.4 °F57 %29.95 in5.0 miNNW (340°)17.3 mph
6:00 PM69.8 °F55.4 °F60 %29.95 in5.0 miNNW (340°)17.3 mph
6:00 PM69.0 °F57.0 °F57 %29.97 in5.0 miNNW (330°)17.3 mph
7:00 PM66.2 °F55.4 °F68 %29.98 in5.0 miNNW (340°)18.4 mph
8:00 PM64.4 °F55.4 °F73 %29.98 in5.0 miNNW (340°)18.4 mph
9:00 PM64.0 °F56.0 °F68 %30.04 in5.0 miNNW (340°)17.3 mph
9:00 PM64.4 °F53.6 °F68 %30.01 in5.0 miNorth (350°)17.3 mph
10:00 PM62.6 °F51.8 °F68 %30.04 in5.0 miNorth (350°)17.3 mph
11:00 PM62.6 °F51.8 °F68 %30.04 in5.0 miNorth (360°)17.3 mph
Hourly data recorded from GQPP, located miles away from Port-Etienne, Mauritania







STORIES FROM OUR PARTNERS